Regional Weather Roundup
Issued by NWS Cleveland, OH

Home | Current Version | Previous Version | Graphics & Text | Print | Product List | Glossary On
Versions: 1 2 3 4 5 6 7 8 9 10 11 12 13 14 15 16 17 18 19 20 21 22 23 24 25 26 27 28 29 30 31 32 33 34 35 36 37 38 39 40 41 42 43 44 45 46 47 48 49 50
000
ASUS41 KCLE 260000
RWRCLE
OHIO REGIONAL WEATHER ROUNDUP
NATIONAL WEATHER SERVICE WILMINGTON, OH
700 PM EST THU DEC 25 2014

NOTE: "FAIR" INDICATES FEW OR NO CLOUDS BELOW 12,000 FEET WITH NO
SIGNIFICANT WEATHER AND/OR OBSTRUCTIONS TO VISIBILITY.

OHZ001>008-015>018-024>027-034-035-043-044-260100-
   NORTHWEST OHIO

CITY           SKY/WX    TMP DP  RH WIND       PRES   REMARKS
DEFIANCE       CLOUDY    37  31  78 SW9       30.13R
FINDLAY        CLOUDY    37  31  78 SW8       30.13R
TOLEDO EXPRESS CLOUDY    37  29  72 SW8       30.11R
TOLEDO METCALF CLOUDY    38  29  70 SW14G21   30.13R
LIMA           CLOUDY    38  30  73 S8        30.14R
$$

OHZ009>014-019>023-028>033-038-089-260100-
   NORTHEAST OHIO

CITY           SKY/WX    TMP DP  RH WIND       PRES   REMARKS
CLE-HOPKINS    CLOUDY    38  30  73 SW8       30.16R
CLE-LAKEFRONT  CLOUDY    40  30  67 SW17G23   30.14R
CUY CO. ARPT   CLOUDY    39  32  75 SW14      30.14R
LORAIN-ELYRIA  CLOUDY    37  30  75 W8        30.15R
ASHTABULA      CLOUDY    38  28  67 SW10      30.13R
AKRON-CANTON   CLOUDY    38  28  67 W8        30.14R
WOOSTER        CLOUDY    37  30  75 SW7       30.15R
MANSFIELD      CLOUDY    37  30  75 SW12      30.15R
YOUNGSTOWN     CLOUDY    37  28  70 SW10      30.13R
$$

OHZ042-051>053-060>062-070>072-077>081-260100-
  SOUTHWEST OHIO

CITY           SKY/WX    TMP DP  RH WIND       PRES   REMARKS
CINC-COVINGTON PTCLDY    35  28  75 S6        30.19R
CINC-LUNKEN    CLEAR     37  31  78 SW3       30.22R
HAMILTON       CLEAR     36  30  79 S3        30.20R
DAYTON         NOT AVBL
WRIGHT-PAT AFB NOT AVBL
DAYTON GENERAL MOCLDY    38  31  76 S6        30.18R
WILMINGTON     CLOUDY    36  30  79 SW8       30.19R
$$

OHZ036-037-039>041-045>050-054>059-063>069-073>076-082>088-260100-
  CENTRAL AND SOUTHEAST OHIO

CITY           SKY/WX    TMP DP  RH WIND       PRES   REMARKS
COLUMBUS       CLOUDY    39  30  70 SW8       30.19R
OSU AIRPORT    CLOUDY    39  30  70 SW8       30.18R
BOLTON FIELD   CLOUDY    37  34  87 SW6       30.19R
RICKENBACK AFB NOT AVBL
NEWARK         CLOUDY    40  32  73 SW5       30.19R
MARION         CLOUDY    38  29  70 SW9       30.17R
LANCASTER      CLOUDY    40  31  70 SW7       30.21R
ZANESVILLE     CLOUDY    38  29  70 SW3       30.19R
NEW PHILLY     CLOUDY    40  31  70 SW6       30.19R
$$


USA.gov is the U.S. government's official web portal to all federal, state and local government web resources and services.